Location: Saint-Palais-sur-Mer
(45.6429°N, 1.0859°W)
Time: 14:04:12
(UTC+01:00)

ARIANE 6 FM1 Upper Stage - Pass Details

Date: 23 January 2026
Orbit: 522 x 609 km, 62.0° (Epoch: 13 February)

Event Time Altitude Azimuth Distance (km) Brightness Sun altitude
Rises 20:09:18 0° 229° (SW) 2,706 7.0 -22.8°
Reaches altitude 10° 20:11:33 10° 233° (SW) 1,803 6.0 -23.2°
Maximum altitude 20:15:34 60° 314° (NW) 615 2.9 -23.9°
Enters shadow 20:15:42 60° 325° (NW) 618 2.9 -23.9°
